Location: Monroe
(41.9160°N, 83.3980°W)
Time: 01:30:37
(UTC-04:00)

Daily predictions for brighter satellites

Satellite Brightness Start Highest point End
(mag) Time Altitude Azimuth Time Altitude Azimuth Time Altitude Azimuth
Resurs 1-4 Rocket 4.2 03:38:35 10° NNE 03:40:25 22° NNE 03:40:25 22° NNE
Cosmos 2263 Rocket 3.4 04:08:41 38° ENE 04:08:41 38° ENE 04:12:56 10° NE
ARIANE 5 R/B 4.3 04:12:29 10° N 04:14:37 26° N 04:14:37 26° N
CZ-4C R/B 4.2 04:22:58 20° NNW 04:22:58 20° NNW 04:26:40 10° NNE
ATLAS 3B R/B 4.2 04:21:56 24° SSE 04:24:50 31° ESE 04:30:57 10° NE
CZ-2D R/B 3.8 04:21:14 10° N 04:23:22 24° N 04:23:22 24° N
Atlas Centaur 2 4.0 04:33:33 22° SE 04:33:33 22° SE 04:36:07 10° ESE
ASTEX 1 4.3 04:30:49 10° NNE 04:35:32 44° E 04:35:32 44° E
CZ-3 R/B 4.3 04:33:13 32° SSW 04:40:33 38° S 04:49:50 10° ESE
Cosmos 1932 4.4 04:47:39 77° S 04:48:08 85° ESE 04:54:44 10° NE
Gbstr 26 Del rocket 4.3 04:47:25 50° WNW 04:49:48 86° SW 04:58:00 10° SE
Okean O Rocket 3.8 04:47:23 10° NE 04:50:47 22° E 04:53:52 11° SE
Cosmos 2266 Rocket 3.9 04:53:14 10° N 04:59:41 87° W 05:03:06 30° S
Meteor 1-10 4.5 04:57:12 10° NNW 05:02:46 80° W 05:02:47 80° W
ADEOS II 2.4 04:57:54 10° NNE 05:03:08 62° E 05:05:00 39° SSE
DELTA 2 R/B (1) 3.6 05:03:49 64° S 05:03:49 64° S 05:09:03 10° ESE
Cosmos 1607 3.9 05:07:23 60° W 05:08:01 63° NW 05:14:22 10° NNE
Cosmos 332 Rocket 3.7 05:10:01 10° NNW 05:14:51 85° ENE 05:19:38 10° SSE
MOS 1-B 4.3 05:09:39 10° NNE 05:15:28 81° ESE 05:18:24 31° S
Intercosmos 25 Rocket 3.8 05:16:06 50° ESE 05:16:26 52° E 05:19:36 10° NNE
PSLV R/B 4.2 05:12:59 10° NNE 05:17:06 52° E 05:18:48 31° SSE
Cosmos 371 Rocket 3.3 05:13:41 10° NNW 05:18:35 78° ENE 05:23:26 10° SSE
Cosmos 1741 Rocket 4.2 05:22:18 50° WNW 05:22:18 50° WNW 05:27:23 10° N
Resurs 1-4 Rocket 4.0 05:19:43 10° NNW 05:21:30 16° NW 05:21:30 16° NW
Cosmos 1544 Rocket 3.5 05:21:09 10° N 05:25:31 84° E 05:29:52 10° S
Cosmos 468 Rocket 4.0 05:21:48 10° NNW 05:27:10 83° ENE 05:32:28 10° SSE
Cosmos 1975 Rocket 3.8 05:29:11 37° NW 05:29:11 37° NW 05:32:20 10° N
SL-8 R/B 4.1 05:30:44 44° NW 05:31:40 51° NNW 05:36:22 10° ENE
Cosmos 1455 Rocket 2.9 05:28:37 10° N 05:32:58 90° WNW 05:37:17 10° S
Abrixas rocket 3.7 05:34:19 27° N 05:34:19 27° N 05:37:02 10° NE
Cosmos 1666 2.9 05:33:07 10° N 05:36:55 70° E 05:40:41 10° SSE
USA 238 DEB 3.8 05:36:36 21° SSW 05:41:28 79° ESE 05:48:29 10° NE
USA 238 3.8 05:36:40 21° SSW 05:41:35 78° ESE 05:48:36 10° NE
Cosmos 1844 Rocket 3.4 05:36:28 10° S 05:41:57 54° ESE 05:47:28 10° NNE
Cosmos 1763 Rocket 3.9 05:37:28 10° NNW 05:42:46 66° ENE 05:48:02 10° SSE
Meteor 1-4 Rocket 2.2 05:44:36 10° NNW 05:48:05 80° W 05:51:33 10° S
BREEZE-M R/B 3.7 05:48:19 42° SW 05:49:23 79° SE 05:58:32 10° ENE
Cosmos 1975 4.3 05:46:29 10° NNW 05:48:24 23° NW 05:48:24 23° NW
Meteor 1-31 Rocket 3.9 05:46:50 10° NNE 05:50:34 44° E 05:54:14 10° S
Cosmos 2263 Rocket 3.1 05:50:25 28° WNW 05:51:38 30° NW 05:56:39 10° N
PSLV R/B 3.9 05:48:30 10° N 05:52:12 49° WNW 05:52:49 44° WSW
Cosmos 1743 2.7 05:48:47 10° NNW 05:52:38 55° W 05:56:26 10° S
Cosmos 1536 Rocket 3.4 05:49:51 15° SSW 05:53:28 79° W 05:57:51 10° N
Lacrosse 5 rocket 4.0 05:53:05 10° N 05:53:35 10° NNE 05:54:05 10° NNE
Cosmos 304 Rocket 4.3 05:53:55 10° NNW 05:58:43 63° ENE 06:03:29 10° SSE
Meteor PRIRODA 3.9 05:55:05 10° NNE 05:58:47 68° ESE 06:02:27 10° S
Cosmos 1417 Rocket 4.5 05:59:56 10° SSW 06:06:18 76° W 06:12:40 10° N
Meteor 1-28 Rocket 4.4 06:05:31 10° SE 06:09:04 44° ENE 06:12:40 10° N
PAYLOAD B 4.2 06:04:00 10° N 06:09:28 65° WNW 06:14:53 10° SSW
ATLAS 5 CENTAUR R/B 2.9 06:05:34 10° NNW 06:11:29 63° NE 06:17:58 10° SE
Cosmos 1745 Rocket 4.1 06:07:06 10° N 06:13:30 86° E 06:19:50 10° S
ATLAS 3B R/B 2.9 06:09:15 16° SW 06:15:12 60° NW 06:22:14 10° NNE
Cosmos 1025 Rocket 3.6 06:12:02 10° S 06:16:12 59° E 06:20:26 10° NNE
USA 116 3.3 06:13:59 10° SSE 06:17:09 73° ENE 06:20:14 10° N
NOSS 3-2 (C) 4.1 06:12:35 10° SSW 06:18:20 55° ESE 06:24:38 10° NE
Cosmos 1553 Rocket 3.9 06:13:09 10° SSW 06:19:15 71° W 06:25:20 10° N
Atlas Centaur 2 3.6 06:16:12 15° SW 06:19:24 23° SSW 06:23:29 10° SE
Cosmos 2292 Rocket 4.4 06:17:12 10° N 06:22:07 77° E 06:28:43 10° S
Okean 1-7 Rocket 4.1 06:20:15 10° S 06:24:43 66° E 06:29:15 10° NNE
SL-08 R/B 4.4 06:20:40 10° NNW 06:26:41 62° W 06:32:42 10° S
ATLAS CENTAUR R/B 1.8 06:22:54 10° SSW 06:26:44 55° ESE 06:30:24 10° NE
Okean O Rocket 2.3 06:23:18 10° N 06:27:13 33° WNW 06:31:06 10° SW
CZ-4B R/B 4.1 06:26:09 10° NNW 06:29:18 22° WNW 06:31:14 16° WSW
Cosmos 1844 3.7 06:27:04 10° SSW 06:32:40 79° WNW 06:38:23 10° NNE
Cosmos 1814 Rocket 4.5 06:28:53 10° NW 06:33:36 37° WSW 06:38:20 10° SSW
CZ-4B R/B 3.5 06:29:07 10° N 06:34:08 44° WNW 06:39:09 10° SW
Cosmos 389 Rocket 2.5 06:31:42 10° N 06:35:11 84° E 06:38:40 10° S
Cosmos 724 4.5 06:32:59 10° SW 06:38:59 58° NW 06:44:55 10° NNE
S3M 4.2 06:34:16 10° SSW 06:40:23 54° WNW 06:46:37 10° N
Feng Yun 1-1 Rocket 4.3 06:35:14 10° NNE 06:40:39 84° ESE 06:46:08 10° SSW
ADEOS II 3.5 06:38:52 10° NNW 06:42:21 18° WNW 06:45:49 10° WSW
COSMO-SKYMED 1 2.8 06:39:44 10° SSE 06:44:03 78° ENE 06:48:25 10° N
Cosmos 1503 Rocket 4.1 06:38:44 10° SSW 06:44:06 86° WNW 06:49:31 10° NNE
Cosmos 1271 Rocket 2.8 06:41:25 10° NNW 06:45:23 63° W 06:49:21 10° S
Meteor 2-4 Rocket 4.2 06:40:32 10° SW 06:45:47 41° WNW 06:51:14 10° N
Cosmos 1354 Rocket 4.0 06:40:30 10° SSW 06:45:49 84° WNW 06:51:12 10° NNE
Cosmos 1606 Rocket 3.9 06:41:57 10° N 06:46:17 72° E 06:50:38 10° SSE
USA 215 3.8 06:41:42 10° ESE 06:48:05 60° NE 06:54:29 10° NW
CZ-4B R/B 4.4 06:45:20 10° N 06:48:59 37° WNW 06:52:47 10° SW
DELTA 2 R/B (1) 4.4 06:44:37 10° W 06:49:33 34° SSW 06:54:31 10° SE
Cosmos 2058 Rocket 4.1 06:51:03 10° N 06:55:26 53° E 06:59:50 10° SSE
CZ-2C R/B 4.4 06:51:15 10° SSW 06:55:30 34° W 06:59:50 10° NNW
